| time (UTC) | temp C | wind direction | speed KPH | gust KPH | rain 1hr cm | rain 24hr cm | rain mn cm | humidity % | barometer mb |
| 20260906132129 | 27 | 75 | 1.6 | 4.8 | 0.00 | 0.00 | 0.00 | 89 | 1013.9 |
| 20260906131629 | 26 | 207 | 1.6 | 1.6 | 0.00 | 0.00 | 0.00 | 91 | 1013.9 |
| 20260906131129 | 25 | 293 | 1.6 | 4.8 | 0.00 | 0.00 | 0.00 | 92 | 1013.8 |
| 20260906130629 | 25 | 245 | 0.0 | 0.0 | 0.00 | 0.00 | 0.00 | 93 | 1013.9 |
| 20260906130129 | 25 | 245 | 0.0 | 0.0 | 0.00 | 0.00 | 0.00 | 94 | 1013.6 |
| 20260906125629 | 24 | 245 | 1.6 | 3.2 | 0.00 | 0.00 | 0.00 | 94 | 1013.6 |
| 20260906125129 | 24 | 245 | 0.0 | 3.2 | 0.00 | 0.00 | 0.00 | 94 | 1013.6 |
| 20260906124629 | 23 | 245 | 0.0 | 0.0 | 0.00 | 0.00 | 0.00 | 94 | 1013.5 |
| 20260906124129 | 23 | 245 | 0.0 | 0.0 | 0.00 | 0.00 | 0.00 | 94 | 1013.3 |
| 20260906123629 | 23 | 245 | 1.6 | 3.2 | 0.00 | 0.00 | 0.00 | 94 | 1013.2 |
| 20260906123129 | 23 | 245 | 1.6 | 4.8 | 0.00 | 0.00 | 0.00 | 94 | 1013.3 |
| 20260906122629 | 23 | 248 | 0.0 | 3.2 | 0.00 | 0.00 | 0.00 | 94 | 1013.2 |
| 20260906122129 | 23 | 248 | 0.0 | 0.0 | 0.00 | 0.00 | 0.00 | 94 | 1013.1 |
| 20260906121629 | 23 | 248 | 0.0 | 0.0 | 0.00 | 0.00 | 0.00 | 94 | 1013.1 |
| 20260906121129 | 23 | 248 | 0.0 | 0.0 | 0.00 | 0.00 | 0.00 | 94 | 1012.9 |
| 20260906120629 | 23 | 248 | 0.0 | 0.0 | 0.00 | 0.00 | 0.00 | 94 | 1012.9 |
| 20260906120129 | 23 | 248 | 0.0 | 0.0 | 0.00 | 0.00 | 0.00 | 94 | 1012.8 |
| 20260906115629 | 23 | 248 | 0.0 | 0.0 | 0.00 | 0.00 | 0.00 | 94 | 1012.7 |
| 20260906115129 | 23 | 248 | 0.0 | 0.0 | 0.00 | 0.00 | 0.00 | 94 | 1012.7 |
| 20260906114629 | 23 | 248 | 0.0 | 0.0 | 0.00 | 0.00 | 0.00 | 94 | 1012.8 |
| 20260906114129 | 23 | 248 | 0.0 | 0.0 | 0.00 | 0.00 | 0.00 | 94 | 1012.7 |
| 20260906113629 | 23 | 248 | 0.0 | 0.0 | 0.00 | 0.00 | 0.00 | 94 | 1012.7 |
| 20260906113129 | 23 | 248 | 0.0 | 0.0 | 0.00 | 0.00 | 0.00 | 94 | 1012.6 |
| 20260906112629 | 23 | 248 | 0.0 | 0.0 | 0.00 | 0.00 | 0.00 | 94 | 1012.6 |
| 20260906112129 | 23 | 248 | 0.0 | 0.0 | 0.00 | 0.00 | 0.00 | 94 | 1012.4 |
| 20260906111629 | 23 | 248 | 0.0 | 0.0 | 0.00 | 0.00 | 0.00 | 94 | 1012.5 |
| 20260906111129 | 23 | 248 | 0.0 | 1.6 | 0.00 | 0.00 | 0.00 | 94 | 1012.4 |
| 20260906110629 | 23 | 248 | 0.0 | 3.2 | 0.00 | 0.00 | 0.00 | 94 | 1012.4 |
| 20260906110129 | 23 | 248 | 0.0 | 1.6 | 0.00 | 0.00 | 0.00 | 94 | 1012.2 |
| 20260906105629 | 23 | 247 | 0.0 | 1.6 | 0.00 | 0.00 | 0.00 | 95 | 1012.1 |
| 20260906105129 | 23 | 243 | 0.0 | 0.0 | 0.00 | 0.00 | 0.00 | 94 | 1012.2 |
| 20260906104629 | 23 | 243 | 0.0 | 1.6 | 0.00 | 0.00 | 0.00 | 94 | 1012.2 |
| 20260906104129 | 23 | 243 | 0.0 | 1.6 | 0.00 | 0.00 | 0.00 | 94 | 1012.1 |
| 20260906103629 | 23 | 243 | 0.0 | 3.2 | 0.00 | 0.00 | 0.00 | 94 | 1012.2 |
| 20260906103129 | 23 | 242 | 0.0 | 0.0 | 0.00 | 0.00 | 0.00 | 94 | 1012.3 |
| 20260906102629 | 23 | 242 | 0.0 | 0.0 | 0.00 | 0.00 | 0.00 | 94 | 1012.3 |
| 20260906102129 | 23 | 242 | 0.0 | 0.0 | 0.00 | 0.00 | 0.00 | 94 | 1012.3 |
| 20260906101629 | 23 | 242 | 0.0 | 0.0 | 0.00 | 0.00 | 0.00 | 94 | 1012.3 |
| 20260906101129 | 23 | 242 | 0.0 | 0.0 | 0.00 | 0.00 | 0.00 | 94 | 1012.4 |
| 20260906100629 | 23 | 242 | 0.0 | 0.0 | 0.00 | 0.00 | 0.00 | 94 | 1012.5 |
| 20260906100129 | 23 | 242 | 0.0 | 0.0 | 0.00 | 0.00 | 0.00 | 94 | 1012.5 |
| 20260906095630 | 23 | 242 | 0.0 | 0.0 | 0.00 | 0.00 | 0.00 | 94 | 1012.5 |
| 20260906095129 | 23 | 242 | 0.0 | 0.0 | 0.00 | 0.00 | 0.00 | 94 | 1012.4 |
| 20260906094630 | 23 | 242 | 1.6 | 3.2 | 0.00 | 0.00 | 0.00 | 94 | 1012.5 |
| 20260906094130 | 23 | 242 | 3.2 | 4.8 | 0.00 | 0.00 | 0.00 | 93 | 1012.4 |
| 20260906093630 | 23 | 248 | 1.6 | 3.2 | 0.00 | 0.00 | 0.00 | 92 | 1012.2 |
| 20260906093130 | 24 | 248 | 0.0 | 1.6 | 0.00 | 0.00 | 0.00 | 92 | 1012.1 |
| 20260906092630 | 24 | 248 | 0.0 | 0.0 | 0.00 | 0.00 | 0.00 | 92 | 1012.1 |
| 20260906092130 | 24 | 248 | 0.0 | 0.0 | 0.00 | 0.00 | 0.00 | 91 | 1012.0 |
| 20260906091630 | 24 | 248 | 0.0 | 0.0 | 0.00 | 0.00 | 0.00 | 91 | 1011.9 |
| 20260906091130 | 24 | 248 | 0.0 | 0.0 | 0.00 | 0.00 | 0.00 | 91 | 1011.9 |
| 20260906090630 | 24 | 248 | 0.0 | 0.0 | 0.00 | 0.00 | 0.00 | 91 | 1012.0 |
| 20260906090130 | 24 | 248 | 0.0 | 0.0 | 0.00 | 0.00 | 0.00 | 91 | 1011.9 |
| 20260906085630 | 24 | 248 | 0.0 | 0.0 | 0.00 | 0.00 | 0.00 | 91 | 1011.9 |
| 20260906085130 | 24 | 248 | 0.0 | 0.0 | 0.00 | 0.00 | 0.00 | 91 | 1011.9 |
| 20260906084630 | 24 | 248 | 0.0 | 0.0 | 0.00 | 0.00 | 0.00 | 91 | 1012.0 |
| 20260906084130 | 24 | 248 | 0.0 | 0.0 | 0.00 | 0.00 | 0.00 | 91 | 1012.0 |
| 20260906083630 | 24 | 248 | 0.0 | 0.0 | 0.00 | 0.00 | 0.00 | 91 | 1011.9 |
| 20260906083130 | 24 | 248 | 0.0 | 0.0 | 0.00 | 0.00 | 0.00 | 91 | 1011.9 |
| 20260906082630 | 24 | 248 | 0.0 | 0.0 | 0.00 | 0.00 | 0.00 | 91 | 1011.9 |
| 20260906082130 | 24 | 248 | 0.0 | 0.0 | 0.00 | 0.00 | 0.00 | 91 | 1011.8 |
| 20260906081630 | 24 | 248 | 0.0 | 3.2 | 0.00 | 0.00 | 0.00 | 91 | 1012.0 |
| 20260906081130 | 25 | 248 | 0.0 | 3.2 | 0.00 | 0.00 | 0.00 | 90 | 1012.0 |
| 20260906080630 | 25 | 248 | 0.0 | 0.0 | 0.00 | 0.00 | 0.00 | 90 | 1011.9 |
| 20260906080130 | 25 | 248 | 0.0 | 0.0 | 0.00 | 0.00 | 0.00 | 90 | 1011.9 |
| 20260906075630 | 25 | 248 | 0.0 | 3.2 | 0.00 | 0.00 | 0.00 | 90 | 1012.0 |
| 20260906075130 | 25 | 248 | 0.0 | 3.2 | 0.00 | 0.00 | 0.00 | 88 | 1011.9 |
| 20260906074630 | 25 | 248 | 0.0 | 0.0 | 0.00 | 0.00 | 0.00 | 88 | 1011.8 |
| 20260906074130 | 25 | 248 | 0.0 | 0.0 | 0.00 | 0.00 | 0.00 | 88 | 1011.8 |
| 20260906073630 | 25 | 248 | 0.0 | 0.0 | 0.00 | 0.00 | 0.00 | 88 | 1011.9 |
| 20260906073130 | 25 | 248 | 0.0 | 0.0 | 0.00 | 0.00 | 0.00 | 88 | 1011.8 |
| 20260906072630 | 25 | 248 | 0.0 | 0.0 | 0.00 | 0.00 | 0.00 | 88 | 1012.0 |
| 20260906072130 | 25 | 248 | 0.0 | 0.0 | 0.00 | 0.00 | 0.00 | 87 | 1011.9 |
| 20260906071630 | 25 | 248 | 0.0 | 0.0 | 0.00 | 0.00 | 0.00 | 87 | 1011.9 |
| 20260906071130 | 26 | 248 | 0.0 | 0.0 | 0.00 | 0.00 | 0.00 | 87 | 1011.9 |
| 20260906070630 | 26 | 248 | 0.0 | 0.0 | 0.00 | 0.00 | 0.00 | 86 | 1011.9 |
| 20260906070130 | 26 | 248 | 0.0 | 0.0 | 0.00 | 0.00 | 0.00 | 86 | 1012.1 |
| 20260906065630 | 26 | 248 | 0.0 | 0.0 | 0.00 | 0.00 | 0.00 | 86 | 1012.1 |
| 20260906065130 | 26 | 248 | 0.0 | 0.0 | 0.00 | 0.00 | 0.00 | 86 | 1012.1 |
| 20260906064630 | 26 | 248 | 0.0 | 0.0 | 0.00 | 0.00 | 0.00 | 86 | 1012.1 |
| 20260906064130 | 26 | 248 | 0.0 | 0.0 | 0.00 | 0.00 | 0.00 | 86 | 1012.2 |
| 20260906063630 | 26 | 248 | 0.0 | 0.0 | 0.00 | 0.00 | 0.00 | 85 | 1012.2 |
| 20260906063130 | 26 | 248 | 0.0 | 0.0 | 0.00 | 0.00 | 0.00 | 86 | 1012.3 |
| 20260906062630 | 26 | 248 | 0.0 | 0.0 | 0.00 | 0.00 | 0.00 | 85 | 1012.4 |
| 20260906062130 | 26 | 248 | 0.0 | 0.0 | 0.00 | 0.00 | 0.00 | 85 | 1012.4 |
| 20260906061630 | 26 | 249 | 0.0 | 0.0 | 0.00 | 0.00 | 0.00 | 85 | 1012.4 |
| 20260906061130 | 26 | 249 | 0.0 | 0.0 | 0.00 | 0.00 | 0.00 | 85 | 1012.4 |
| 20260906060630 | 26 | 249 | 0.0 | 1.6 | 0.00 | 0.00 | 0.00 | 85 | 1012.5 |
| 20260906060130 | 26 | 249 | 0.0 | 0.0 | 0.00 | 0.00 | 0.00 | 85 | 1012.6 |
| 20260906055630 | 26 | 249 | 0.0 | 0.0 | 0.00 | 0.00 | 0.00 | 85 | 1012.7 |
| 20260906055130 | 26 | 249 | 0.0 | 0.0 | 0.00 | 0.00 | 0.00 | 85 | 1012.7 |
| 20260906054630 | 26 | 249 | 0.0 | 0.0 | 0.00 | 0.00 | 0.00 | 84 | 1012.8 |
| 20260906054130 | 26 | 249 | 0.0 | 0.0 | 0.00 | 0.00 | 0.00 | 83 | 1012.9 |
| 20260906053630 | 26 | 249 | 0.0 | 0.0 | 0.00 | 0.00 | 0.00 | 83 | 1013.0 |
| 20260906053130 | 26 | 249 | 0.0 | 0.0 | 0.00 | 0.00 | 0.00 | 83 | 1012.9 |
| 20260906052630 | 26 | 249 | 0.0 | 0.0 | 0.00 | 0.00 | 0.00 | 83 | 1012.8 |
| 20260906052130 | 27 | 249 | 0.0 | 0.0 | 0.00 | 0.00 | 0.00 | 83 | 1012.8 |
| 20260906051630 | 27 | 249 | 0.0 | 0.0 | 0.00 | 0.00 | 0.00 | 83 | 1012.8 |
| 20260906051130 | 27 | 249 | 0.0 | 0.0 | 0.00 | 0.00 | 0.00 | 83 | 1012.9 |
| 20260906050630 | 27 | 249 | 0.0 | 0.0 | 0.00 | 0.00 | 0.00 | 82 | 1012.8 |
| 20260906050130 | 27 | 249 | 0.0 | 0.0 | 0.00 | 0.00 | 0.00 | 82 | 1012.8 |
| 20260906045630 | 27 | 249 | 0.0 | 0.0 | 0.00 | 0.00 | 0.00 | 82 | 1012.7 |
| 20260906045130 | 27 | 249 | 0.0 | 0.0 | 0.00 | 0.00 | 0.00 | 82 | 1012.5 |
| 20260906044630 | 27 | 249 | 0.0 | 0.0 | 0.00 | 0.00 | 0.00 | 82 | 1012.6 |
| 20260906044130 | 27 | 249 | 0.0 | 3.2 | 0.00 | 0.00 | 0.00 | 82 | 1012.6 |
| 20260906043630 | 27 | 249 | 0.0 | 1.6 | 0.00 | 0.00 | 0.00 | 82 | 1012.4 |
| 20260906043130 | 27 | 249 | 0.0 | 1.6 | 0.00 | 0.00 | 0.00 | 82 | 1012.4 |
| 20260906042630 | 27 | 249 | 0.0 | 3.2 | 0.00 | 0.00 | 0.00 | 82 | 1012.5 |
| 20260906042130 | 27 | 249 | 0.0 | 0.0 | 0.00 | 0.00 | 0.00 | 81 | 1012.5 |
| 20260906041630 | 27 | 249 | 0.0 | 1.6 | 0.00 | 0.00 | 0.00 | 81 | 1012.5 |
| 20260906041130 | 27 | 249 | 0.0 | 3.2 | 0.00 | 0.00 | 0.00 | 81 | 1012.4 |
| 20260906040630 | 28 | 245 | 1.6 | 3.2 | 0.00 | 0.00 | 0.00 | 81 | 1012.5 |
| 20260906040130 | 28 | 245 | 1.6 | 3.2 | 0.00 | 0.00 | 0.00 | 81 | 1012.4 |
| 20260906035630 | 28 | 245 | 1.6 | 4.8 | 0.00 | 0.00 | 0.00 | 80 | 1012.5 |
| 20260906035130 | 28 | 245 | 1.6 | 4.8 | 0.00 | 0.00 | 0.00 | 80 | 1012.5 |
| 20260906034630 | 28 | 244 | 1.6 | 4.8 | 0.00 | 0.00 | 0.00 | 80 | 1012.7 |
| 20260906034130 | 28 | 245 | 1.6 | 4.8 | 0.00 | 0.00 | 0.00 | 79 | 1012.7 |
| 20260906033630 | 28 | 245 | 1.6 | 6.4 | 0.00 | 0.00 | 0.00 | 79 | 1012.8 |
| 20260906033131 | 28 | 236 | 0.0 | 3.2 | 0.00 | 0.00 | 0.00 | 79 | 1012.8 |
| 20260906032630 | 28 | 236 | 0.0 | 1.6 | 0.00 | 0.00 | 0.00 | 78 | 1012.8 |
| 20260906032130 | 28 | 236 | 1.6 | 1.6 | 0.00 | 0.00 | 0.00 | 78 | 1012.8 |
| 20260906031630 | 28 | 236 | 1.6 | 3.2 | 0.00 | 0.00 | 0.00 | 77 | 1012.8 |
| 20260906031130 | 29 | 236 | 3.2 | 3.2 | 0.00 | 0.00 | 0.00 | 77 | 1012.8 |
| 20260906030630 | 29 | 236 | 3.2 | 4.8 | 0.00 | 0.00 | 0.00 | 77 | 1012.7 |
| 20260906030130 | 29 | 229 | 3.2 | 6.4 | 0.00 | 0.00 | 0.00 | 76 | 1012.7 |
| 20260906025630 | 29 | 229 | 4.8 | 6.4 | 0.00 | 0.00 | 0.00 | 76 | 1012.7 |
| 20260906025130 | 29 | 234 | 4.8 | 8.0 | 0.00 | 0.00 | 0.00 | 75 | 1012.6 |
| 20260906024630 | 30 | 231 | 4.8 | 6.4 | 0.00 | 0.00 | 0.00 | 75 | 1012.7 |
| 20260906024130 | 30 | 239 | 4.8 | 8.0 | 0.00 | 0.00 | 0.00 | 74 | 1012.6 |
| 20260906023630 | 30 | 235 | 4.8 | 8.0 | 0.00 | 0.00 | 0.00 | 74 | 1012.6 |
| 20260906023130 | 30 | 233 | 6.4 | 8.0 | 0.00 | 0.00 | 0.00 | 73 | 1012.6 |
| 20260906022630 | 30 | 232 | 4.8 | 11.3 | 0.00 | 0.00 | 0.00 | 73 | 1012.5 |
| 20260906022130 | 30 | 233 | 4.8 | 6.4 | 0.00 | 0.00 | 0.00 | 72 | 1012.5 |
| 20260906021630 | 30 | 226 | 4.8 | 8.0 | 0.00 | 0.00 | 0.00 | 72 | 1012.5 |
| 20260906021130 | 30 | 233 | 4.8 | 8.0 | 0.00 | 0.00 | 0.00 | 72 | 1012.5 |
| 20260906020630 | 30 | 226 | 6.4 | 9.7 | 0.00 | 0.00 | 0.00 | 71 | 1012.3 |
| 20260906020130 | 30 | 235 | 6.4 | 11.3 | 0.00 | 0.00 | 0.00 | 72 | 1012.3 |
| 20260906015630 | 30 | 245 | 6.4 | 11.3 | 0.00 | 0.00 | 0.00 | 72 | 1012.3 |
| 20260906015130 | 30 | 237 | 6.4 | 12.9 | 0.00 | 0.00 | 0.00 | 72 | 1012.0 |
| 20260906014630 | 30 | 190 | 6.4 | 11.3 | 0.00 | 0.00 | 0.00 | 71 | 1012.0 |
| 20260906014130 | 30 | 207 | 1.6 | 14.5 | 0.00 | 0.00 | 0.00 | 70 | 1011.9 |
| 20260906013630 | 31 | 92 | 0.0 | 3.2 | 0.00 | 0.00 | 0.00 | 64 | 1011.9 |
| 20260906013130 | 31 | 86 | 0.0 | 0.0 | 0.00 | 0.00 | 0.00 | 64 | 1011.7 |
| 20260906012630 | 31 | 86 | 0.0 | 0.0 | 0.00 | 0.00 | 0.00 | 64 | 1011.9 |
| 20260906012130 | 31 | 86 | 0.0 | 1.6 | 0.00 | 0.00 | 0.00 | 64 | 1011.8 |
| 20260906011630 | 31 | 86 | 0.0 | 0.0 | 0.00 | 0.00 | 0.00 | 65 | 1011.6 |
| 20260906011130 | 31 | 86 | 0.0 | 1.6 | 0.00 | 0.00 | 0.00 | 63 | 1011.4 |
| 20260906010630 | 32 | 86 | 0.0 | 3.2 | 0.00 | 0.00 | 0.00 | 63 | 1011.3 |
| 20260906010130 | 32 | 86 | 1.6 | 1.6 | 0.00 | 0.00 | 0.00 | 63 | 1011.3 |
| 20260906005630 | 32 | 85 | 0.0 | 3.2 | 0.00 | 0.00 | 0.00 | 64 | 1011.3 |
| 20260906005130 | 33 | 84 | 0.0 | 3.2 | 0.00 | 0.00 | 0.00 | 58 | 1011.2 |
| 20260906004630 | 33 | 84 | 0.0 | 3.2 | 0.00 | 0.00 | 0.00 | 57 | 1011.2 |
| 20260906004130 | 33 | 77 | 0.0 | 3.2 | 0.00 | 0.00 | 0.00 | 57 | 1011.2 |
| 20260906003630 | 33 | 77 | 0.0 | 1.6 | 0.00 | 0.00 | 0.00 | 56 | 1011.2 |
| 20260906003130 | 33 | 77 | 0.0 | 0.0 | 0.00 | 0.00 | 0.00 | 56 | 1011.2 |
| 20260906002630 | 33 | 77 | 0.0 | 1.6 | 0.00 | 0.00 | 0.00 | 55 | 1011.3 |
| 20260906002130 | 34 | 77 | 0.0 | 0.0 | 0.00 | 0.00 | 0.00 | 55 | 1011.3 |
| 20260906001630 | 35 | 77 | 0.0 | 0.0 | 0.00 | 0.00 | 0.00 | 57 | 1011.2 |
| 20260906001130 | 35 | 77 | 0.0 | 3.2 | 0.00 | 0.00 | 0.00 | 54 | 1011.2 |
| 20260906000630 | 35 | 76 | 0.0 | 3.2 | 0.00 | 0.00 | 0.00 | 52 | 1011.2 |
| 20260906000130 | 35 | 76 | 0.0 | 3.2 | 0.00 | 0.00 | 0.00 | 51 | 1011.1 |
| 20260905235630 | 35 | 100 | 0.0 | 1.6 | 0.00 | 0.00 | 0.00 | 51 | 1011.0 |
| 20260905235130 | 36 | 52 | 0.0 | 3.2 | 0.00 | 0.00 | 0.00 | 50 | 1011.1 |
| 20260905234630 | 36 | 46 | 0.0 | 0.0 | 0.00 | 0.00 | 0.00 | 50 | 1011.1 |
| 20260905234130 | 36 | 46 | 0.0 | 0.0 | 0.00 | 0.00 | 0.00 | 50 | 1011.1 |
| 20260905233630 | 36 | 46 | 0.0 | 1.6 | 0.00 | 0.00 | 0.00 | 49 | 1011.0 |
| 20260905233130 | 36 | 46 | 0.0 | 1.6 | 0.00 | 0.00 | 0.00 | 49 | 1011.0 |
| 20260905232630 | 36 | 46 | 0.0 | 1.6 | 0.00 | 0.00 | 0.00 | 48 | 1011.0 |
| 20260905232130 | 36 | 46 | 0.0 | 1.6 | 0.00 | 0.00 | 0.00 | 48 | 1010.9 |
| 20260905231630 | 36 | 46 | 1.6 | 4.8 | 0.00 | 0.00 | 0.00 | 49 | 1010.7 |
| 20260905231130 | 36 | 17 | 1.6 | 4.8 | 0.00 | 0.00 | 0.00 | 48 | 1010.7 |
| 20260905230630 | 37 | 144 | 1.6 | 6.4 | 0.00 | 0.00 | 0.00 | 48 | 1010.8 |
| 20260905230130 | 37 | 34 | 0.0 | 4.8 | 0.00 | 0.00 | 0.00 | 49 | 1010.8 |
| 20260905225630 | 37 | 54 | 1.6 | 3.2 | 0.00 | 0.00 | 0.00 | 48 | 1010.7 |
| 20260905225130 | 37 | 75 | 1.6 | 4.8 | 0.00 | 0.00 | 0.00 | 47 | 1010.6 |
| 20260905224630 | 37 | 54 | 1.6 | 4.8 | 0.00 | 0.00 | 0.00 | 47 | 1010.7 |
| 20260905224130 | 37 | 77 | 1.6 | 11.3 | 0.00 | 0.00 | 0.00 | 46 | 1010.7 |
| 20260905223630 | 37 | 78 | 1.6 | 4.8 | 0.00 | 0.00 | 0.00 | 45 | 1010.7 |
| 20260905223130 | 38 | 4 | 1.6 | 4.8 | 0.00 | 0.00 | 0.00 | 45 | 1010.8 |
| 20260905222630 | 38 | 4 | 3.2 | 4.8 | 0.00 | 0.00 | 0.00 | 45 | 1010.8 |
| 20260905222130 | 38 | 0 | 3.2 | 14.5 | 0.00 | 0.00 | 0.00 | 44 | 1010.8 |
| 20260905221630 | 38 | 89 | 1.6 | 8.0 | 0.00 | 0.00 | 0.00 | 45 | 1010.9 |
| 20260905221130 | 38 | 86 | 3.2 | 6.4 | 0.00 | 0.00 | 0.00 | 43 | 1011.0 |
| 20260905220630 | 38 | 220 | 3.2 | 4.8 | 0.00 | 0.00 | 0.00 | 43 | 1010.9 |
| 20260905220130 | 39 | 125 | 1.6 | 4.8 | 0.00 | 0.00 | 0.00 | 43 | 1011.1 |
| 20260905215630 | 39 | 64 | 3.2 | 4.8 | 0.00 | 0.00 | 0.00 | 44 | 1011.2 |
| 20260905215130 | 39 | 49 | 3.2 | 6.4 | 0.00 | 0.00 | 0.00 | 43 | 1011.3 |
| 20260905214630 | 39 | 16 | 1.6 | 6.4 | 0.00 | 0.00 | 0.00 | 42 | 1011.3 |
| 20260905214130 | 39 | 149 | 3.2 | 9.7 | 0.00 | 0.00 | 0.00 | 43 | 1011.3 |
| 20260905213630 | 39 | 75 | 3.2 | 11.3 | 0.00 | 0.00 | 0.00 | 43 | 1011.3 |
| 20260905213130 | 39 | 98 | 3.2 | 8.0 | 0.00 | 0.00 | 0.00 | 43 | 1011.4 |
| 20260905212630 | 38 | 103 | 4.8 | 8.0 | 0.00 | 0.00 | 0.00 | 44 | 1011.4 |
| 20260905212130 | 38 | 72 | 4.8 | 12.9 | 0.00 | 0.00 | 0.00 | 44 | 1011.4 |
| 20260905211630 | 39 | 61 | 4.8 | 9.7 | 0.00 | 0.00 | 0.00 | 43 | 1011.5 |
| 20260905211130 | 38 | 129 | 4.8 | 11.3 | 0.00 | 0.00 | 0.00 | 43 | 1011.5 |
| 20260905210630 | 39 | 65 | 3.2 | 12.9 | 0.00 | 0.00 | 0.00 | 44 | 1011.5 |
| 20260905210130 | 39 | 321 | 3.2 | 4.8 | 0.00 | 0.00 | 0.00 | 45 | 1011.5 |
| 20260905205630 | 38 | 221 | 4.8 | 12.9 | 0.00 | 0.00 | 0.00 | 45 | 1011.6 |
| 20260905205130 | 38 | 268 | 3.2 | 8.0 | 0.00 | 0.00 | 0.00 | 44 | 1011.4 |
| 20260905204630 | 38 | 77 | 3.2 | 6.4 | 0.00 | 0.00 | 0.00 | 44 | 1011.6 |
| 20260905204130 | 38 | 311 | 4.8 | 9.7 | 0.00 | 0.00 | 0.00 | 45 | 1011.6 |
| 20260905203630 | 38 | 173 | 6.4 | 14.5 | 0.00 | 0.00 | 0.00 | 44 | 1011.7 |
| 20260905203131 | 38 | 189 | 4.8 | 17.7 | 0.00 | 0.00 | 0.00 | 45 | 1011.7 |
| 20260905202630 | 39 | 359 | 3.2 | 8.0 | 0.00 | 0.00 | 0.00 | 45 | 1011.8 |
| 20260905202130 | 38 | 164 | 4.8 | 14.5 | 0.00 | 0.00 | 0.00 | 44 | 1011.9 |
| 20260905201631 | 38 | 179 | 6.4 | 17.7 | 0.00 | 0.00 | 0.00 | 44 | 1011.9 |
| 20260905201131 | 39 | 223 | 6.4 | 16.1 | 0.00 | 0.00 | 0.00 | 44 | 1011.9 |
| 20260905200631 | 39 | 131 | 4.8 | 11.3 | 0.00 | 0.00 | 0.00 | 44 | 1011.8 |
| 20260905200131 | 39 | 108 | 3.2 | 8.0 | 0.00 | 0.00 | 0.00 | 45 | 1011.9 |
| 20260905195631 | 38 | 125 | 4.8 | 12.9 | 0.00 | 0.00 | 0.00 | 45 | 1012.0 |
| 20260905195131 | 38 | 103 | 4.8 | 14.5 | 0.00 | 0.00 | 0.00 | 45 | 1012.0 |
| 20260905194631 | 38 | 348 | 3.2 | 8.0 | 0.00 | 0.00 | 0.00 | 44 | 1012.2 |
| 20260905194131 | 38 | 86 | 3.2 | 6.4 | 0.00 | 0.00 | 0.00 | 46 | 1012.3 |
| 20260905193631 | 38 | 151 | 3.2 | 6.4 | 0.00 | 0.00 | 0.00 | 46 | 1012.3 |
| 20260905193131 | 38 | 204 | 3.2 | 9.7 | 0.00 | 0.00 | 0.00 | 46 | 1012.5 |
| 20260905192631 | 38 | 224 | 4.8 | 14.5 | 0.00 | 0.00 | 0.00 | 46 | 1012.5 |
| 20260905192131 | 38 | 278 | 6.4 | 12.9 | 0.00 | 0.00 | 0.00 | 47 | 1012.6 |
| 20260905191631 | 38 | 140 | 6.4 | 14.5 | 0.00 | 0.00 | 0.00 | 48 | 1012.7 |
| 20260905191131 | 38 | 176 | 4.8 | 12.9 | 0.00 | 0.00 | 0.00 | 47 | 1012.7 |
| 20260905190631 | 38 | 212 | 4.8 | 8.0 | 0.00 | 0.00 | 0.00 | 47 | 1012.9 |
| 20260905190131 | 38 | 313 | 6.4 | 11.3 | 0.00 | 0.00 | 0.00 | 48 | 1013.1 |
| 20260905185631 | 38 | 145 | 6.4 | 12.9 | 0.00 | 0.00 | 0.00 | 48 | 1013.0 |
| 20260905185131 | 38 | 131 | 6.4 | 12.9 | 0.00 | 0.00 | 0.00 | 48 | 1013.2 |
| 20260905184631 | 37 | 217 | 6.4 | 14.5 | 0.00 | 0.00 | 0.00 | 49 | 1013.2 |
| 20260905184131 | 38 | 86 | 4.8 | 16.1 | 0.00 | 0.00 | 0.00 | 48 | 1013.2 |
| 20260905183631 | 38 | 88 | 4.8 | 11.3 | 0.00 | 0.00 | 0.00 | 48 | 1013.3 |
| 20260905183131 | 37 | 115 | 4.8 | 16.1 | 0.00 | 0.00 | 0.00 | 49 | 1013.4 |
| 20260905182631 | 37 | 247 | 4.8 | 14.5 | 0.00 | 0.00 | 0.00 | 49 | 1013.5 |
| 20260905182131 | 37 | 203 | 4.8 | 12.9 | 0.00 | 0.00 | 0.00 | 51 | 1013.6 |
| 20260905181631 | 37 | 65 | 6.4 | 12.9 | 0.00 | 0.00 | 0.00 | 49 | 1013.7 |
| 20260905181131 | 37 | 110 | 6.4 | 14.5 | 0.00 | 0.00 | 0.00 | 51 | 1013.6 |
| 20260905180631 | 37 | 161 | 4.8 | 12.9 | 0.00 | 0.00 | 0.00 | 50 | 1013.7 |
| 20260905180131 | 37 | 209 | 4.8 | 11.3 | 0.00 | 0.00 | 0.00 | 50 | 1013.8 |
| 20260905175631 | 37 | 70 | 4.8 | 8.0 | 0.00 | 0.00 | 0.00 | 52 | 1013.9 |
| 20260905175131 | 37 | 2 | 4.8 | 11.3 | 0.00 | 0.00 | 0.00 | 53 | 1013.8 |
| 20260905174631 | 37 | 162 | 4.8 | 9.7 | 0.00 | 0.00 | 0.00 | 52 | 1013.9 |
| 20260905174131 | 37 | 14 | 4.8 | 8.0 | 0.00 | 0.00 | 0.00 | 52 | 1014.0 |
| 20260905173631 | 37 | 127 | 4.8 | 14.5 | 0.00 | 0.00 | 0.00 | 51 | 1014.0 |
| 20260905173131 | 38 | 127 | 3.2 | 14.5 | 0.00 | 0.00 | 0.00 | 50 | 1014.1 |
| 20260905172631 | 38 | 162 | 1.6 | 4.8 | 0.00 | 0.00 | 0.00 | 53 | 1014.0 |
| 20260905172131 | 37 | 226 | 3.2 | 6.4 | 0.00 | 0.00 | 0.00 | 54 | 1014.0 |
| 20260905171631 | 37 | 307 | 3.2 | 4.8 | 0.00 | 0.00 | 0.00 | 54 | 1014.1 |
| 20260905171131 | 37 | 359 | 4.8 | 9.7 | 0.00 | 0.00 | 0.00 | 53 | 1014.2 |
| 20260905170631 | 36 | 150 | 6.4 | 9.7 | 0.00 | 0.00 | 0.00 | 56 | 1014.4 |
| 20260905170131 | 37 | 98 | 4.8 | 12.9 | 0.00 | 0.00 | 0.00 | 54 | 1014.5 |
| 20260905165631 | 37 | 181 | 3.2 | 6.4 | 0.00 | 0.00 | 0.00 | 56 | 1014.5 |
| 20260905165131 | 37 | 55 | 3.2 | 9.7 | 0.00 | 0.00 | 0.00 | 56 | 1014.6 |
| 20260905164631 | 37 | 106 | 3.2 | 8.0 | 0.00 | 0.00 | 0.00 | 56 | 1014.7 |
| 20260905164131 | 36 | 295 | 3.2 | 8.0 | 0.00 | 0.00 | 0.00 | 58 | 1014.7 |
| 20260905163631 | 36 | 27 | 3.2 | 8.0 | 0.00 | 0.00 | 0.00 | 59 | 1014.6 |
| 20260905163131 | 36 | 86 | 3.2 | 9.7 | 0.00 | 0.00 | 0.00 | 58 | 1014.8 |
| 20260905162631 | 36 | 0 | 3.2 | 4.8 | 0.00 | 0.00 | 0.00 | 59 | 1014.7 |
| 20260905162131 | 36 | 15 | 3.2 | 8.0 | 0.00 | 0.00 | 0.00 | 59 | 1014.6 |
| 20260905161631 | 36 | 28 | 3.2 | 6.4 | 0.00 | 0.00 | 0.00 | 59 | 1014.7 |
| 20260905161131 | 36 | 1 | 3.2 | 4.8 | 0.00 | 0.00 | 0.00 | 60 | 1014.9 |
| 20260905160631 | 36 | 32 | 3.2 | 8.0 | 0.00 | 0.00 | 0.00 | 61 | 1014.8 |
| 20260905160131 | 36 | 71 | 3.2 | 4.8 | 0.00 | 0.00 | 0.00 | 61 | 1014.8 |
| 20260905155631 | 35 | 49 | 3.2 | 11.3 | 0.00 | 0.00 | 0.00 | 62 | 1014.9 |
| 20260905155131 | 36 | 113 | 1.6 | 8.0 | 0.00 | 0.00 | 0.00 | 61 | 1015.0 |
| 20260905154631 | 35 | 64 | 1.6 | 6.4 | 0.00 | 0.00 | 0.00 | 63 | 1014.9 |
| 20260905154131 | 35 | 18 | 1.6 | 4.8 | 0.00 | 0.00 | 0.00 | 64 | 1014.8 |
| 20260905153631 | 35 | 20 | 1.6 | 3.2 | 0.00 | 0.00 | 0.00 | 64 | 1014.8 |
| 20260905153131 | 35 | 20 | 1.6 | 3.2 | 0.00 | 0.00 | 0.00 | 65 | 1014.9 |
| 20260905152631 | 34 | 20 | 1.6 | 3.2 | 0.00 | 0.00 | 0.00 | 65 | 1014.8 |
| 20260905152131 | 34 | 101 | 1.6 | 6.4 | 0.00 | 0.00 | 0.00 | 66 | 1014.8 |
| 20260905151631 | 33 | 357 | 1.6 | 4.8 | 0.00 | 0.00 | 0.00 | 67 | 1014.8 |
| 20260905151131 | 33 | 25 | 3.2 | 6.4 | 0.00 | 0.00 | 0.00 | 68 | 1014.9 |
| 20260905150631 | 33 | 105 | 1.6 | 6.4 | 0.00 | 0.00 | 0.00 | 68 | 1014.9 |
| 20260905150131 | 33 | 55 | 0.0 | 4.8 | 0.00 | 0.00 | 0.00 | 70 | 1015.0 |
| 20260905145631 | 33 | 272 | 1.6 | 1.6 | 0.00 | 0.00 | 0.00 | 72 | 1015.1 |
| 20260905145131 | 32 | 257 | 1.6 | 3.2 | 0.00 | 0.00 | 0.00 | 73 | 1015.1 |
| 20260905144631 | 32 | 238 | 1.6 | 4.8 | 0.00 | 0.00 | 0.00 | 73 | 1015.0 |
| 20260905144131 | 32 | 164 | 1.6 | 4.8 | 0.00 | 0.00 | 0.00 | 75 | 1015.0 |
| 20260905143631 | 31 | 1 | 0.0 | 3.2 | 0.00 | 0.00 | 0.00 | 76 | 1015.0 |
| 20260905143131 | 31 | 1 | 0.0 | 3.2 | 0.00 | 0.00 | 0.00 | 78 | 1015.1 |
| 20260905142631 | 31 | 1 | 0.0 | 1.6 | 0.00 | 0.00 | 0.00 | 79 | 1014.9 |
| 20260905142131 | 30 | 44 | 0.0 | 4.8 | 0.00 | 0.00 | 0.00 | 80 | 1014.8 |
| 20260905141631 | 30 | 62 | 0.0 | 4.8 | 0.00 | 0.00 | 0.00 | 81 | 1014.8 |
| 20260905141131 | 30 | 211 | 0.0 | 1.6 | 0.00 | 0.00 | 0.00 | 83 | 1015.0 |
| 20260905140631 | 29 | 211 | 0.0 | 3.2 | 0.00 | 0.00 | 0.00 | 83 | 1015.1 |
| 20260905140131 | 29 | 216 | 0.0 | 1.6 | 0.00 | 0.00 | 0.00 | 84 | 1015.1 |
| 20260905135631 | 28 | 216 | 0.0 | 1.6 | 0.00 | 0.00 | 0.00 | 86 | 1015.1 |
| 20260905135131 | 28 | 216 | 0.0 | 1.6 | 0.00 | 0.00 | 0.00 | 87 | 1015.0 |
| 20260905134631 | 27 | 216 | 0.0 | 1.6 | 0.00 | 0.00 | 0.00 | 89 | 1014.9 |
| 20260905134131 | 27 | 216 | 0.0 | 3.2 | 0.00 | 0.00 | 0.00 | 89 | 1014.9 |
| 20260905133631 | 26 | 217 | 0.0 | 0.0 | 0.00 | 0.00 | 0.00 | 92 | 1014.8 |
| 20260905133131 | 26 | 217 | 0.0 | 0.0 | 0.00 | 0.00 | 0.00 | 93 | 1014.8 |
| 20260905132631 | 25 | 217 | 0.0 | 0.0 | 0.00 | 0.00 | 0.00 | 94 | 1014.8 |